x

Virginia Beach 64 Nm East Of Virginia Beach, Va (44014) Wave Buoy

6:50 - Fri 18th Apr 2014 All times are EDT. -4 hours from GMT.

  • Sig Wave height 7.2ft
  • Swell Direction
  • Peak Period 9s
  • Average Period 6s
  • Wind
    20mph, 22mph gusts
  • Sea Temp 49°f
  • Ar Temp 47°f
  • Sea Pressure 1024.9mb
  • Virginia Beach 64 Nm East Of Virginia Beach, Va
  • Virginia Beach 64 Nm East Of Virginia Beach, Va

More Historic Weather Station data

Upgrade to MSW Pro to gain access to the past 30 days of data for over 8000 Wavebouys and Weather Stations around the globe.

Join Pro

Comparision Forecast

View Surf forecast
   
Sex 04/18 6:50 7ft 9s 6s 20 22 mph 1024.9mb 49f 47f
5:50 7ft 10s 6s 20 25 mph 1025.5mb 49f 47f
4:50 8ft 9s 6s 18 20 mph 1026mb 49f 47f
3:50 8ft 10s 6s 18 22 mph 1027.1mb 49f 47f
2:50 8ft 11s 6s 18 22 mph 1027.8mb 50f 48f
1:50 9ft 10s 6s 22 25 mph 1028.2mb 49f 47f
12:50 8ft 9s 6s 22 25 mph 1028.7mb 49f 47f
11:50 7.5ft 10s 6s 18 22 mph 1028.8mb 49f 49f
10:50 8ft 12s 6s 20 22 mph 1028.6mb 49f 49f
9:50 8ft 9s 6s 22 25 mph 1028.8mb 49f 49f
8:50 9.5ft 9s 7s 22 25 mph 1028.8mb 49f 47f
7:50 9.5ft 10s 7s 22 25 mph 1029.5mb 49f 47f
6:50 10ft 10s 7s 20 25 mph 1029.3mb 49f 47f
5:50 10ft 10s 7s 20 25 mph 1028.6mb 49f 48f
4:50 10.5ft 9s 7s 20 25 mph 1027.7mb 49f 49f
3:50 10ft 11s 7s 20 25 mph 1028.1mb 49f 49f
2:50 9.5ft 9s 7s 22 25 mph 1028.7mb 51f 49f
1:50 10ft 9s 7s 22 25 mph 1029.9mb 53f 50f
12:50 9.5ft 11s 6s 22 27 mph 1030.8mb 54f 51f
Qui 04/17 11:50 9ft 11s 6s 22 27 mph 1031.5mb 54f 51f
10:50 9ft 8s 6s 25 29 mph 1030.7mb 54f 52f
9:50 9ft 9s 6s 27 31 mph 1030.7mb 54f 52f
8:50 9ft 11s 6s 27 31 mph 1031mb 54f 51f
6:50 9ft 10s 6s 25 29 mph 1031.7mb 53f 51f
5:50 9ft 8s 6s 27 34 mph 1031.9mb 51f 50f
4:50 10ft 11s 6s 27 34 mph 1031.8mb 51f 50f
3:50 10ft 10s 6s 29 34 mph 1031.8mb 51f 50f
2:50 11ft 10s 6s 29 34 mph 1032.2mb 53f 51f
1:50 9.5ft 11s 6s 29 38 mph 1032.7mb 53f 51f
12:50 10ft 10s 6s 29 36 mph 1032.7mb 52f 50f
11:50 10ft 7s 6s 29 36 mph 1032.6mb 53f 50f
10:50 10ft 10s 6s 29 36 mph 1032.7mb 54f 50f
9:50 9.5ft 7s 6s 29 36 mph 1032.4mb 53f 51f
8:50 9.5ft 10s 6s 29 34 mph 1032mb 51f 50f
7:50 9ft 8s 6s 29 36 mph 1031.6mb 51f 50f
6:50 9ft 10s 6s 27 34 mph 1030.8mb 51f 50f
5:50 8ft 9s 6s 27 31 mph 1030.4mb 51f 49f
4:50 8ft 7s 6s 27 31 mph 1030.1mb 50f 49f
3:50 9ft 9s 6s 25 31 mph 1030mb - 49f
2:50 10ft 8s 6s 27 31 mph 1029.7mb - 48f
1:50 10ft 8s 6s 25 29 mph 1030.1mb 64f 49f
12:50 10ft 8s 6s 25 29 mph 1030.5mb 64f 49f
Qua 04/16 11:50 9ft 7s 6s 20 27 mph 1031.4mb 64f 48f
10:50 9.5ft 8s 6s 22 31 mph 1031.2mb 65f 47f
9:50 9ft 8s 6s 22 29 mph 1030.9mb 65f 47f
8:50 9.5ft 8s 6s 25 31 mph 1030.5mb 65f 45f
7:50 9ft 8s 6s 25 31 mph 1029.4mb 65f 45f
6:50 9.5ft 9s 6s 27 34 mph 1028.9mb 65f 44f
5:50 10ft 9s 6s 27 34 mph 1028.3mb 65f 44f
4:50 10ft 9s 6s 27 34 mph 1028.3mb 65f 43f
3:50 11ft 9s 7s 27 34 mph 1028.1mb 65f 42f
2:50 11.5ft 9s 7s 27 34 mph 1028.1mb 65f 42f
1:50 12ft 10s 7s 29 36 mph 1027.8mb 65f 42f
12:50 13ft 9s 7s 31 36 mph 1027.4mb 62f 42f
11:50 12ft 8s 6s 31 38 mph 1027.3mb 62f 42f
10:50 13.5ft 9s 7s 34 38 mph 1026.2mb 62f 42f
9:50 13ft 9s 7s 34 40 mph 1024.3mb 62f 42f
8:50 14.5ft 9s 7s 31 40 mph 1023mb 62f 42f
7:50 13ft 9s 7s 31 38 mph 1021.5mb 62f 43f
6:50 12.5ft 8s 7s 34 43 mph 1020.1mb 55f 43f
5:50 12ft 7s 6s 34 40 mph 1018.4mb 54f 44f
4:50 12ft 8s 6s 34 43 mph 1017.4mb 54f 44f
3:50 12ft 8s 6s 36 45 mph 1015.4mb 53f 43f
2:50 12ft 8s 6s 34 43 mph 1014.1mb 52f 44f
1:50 12ft 8s 6s 36 43 mph 1012.8mb 51f 45f
12:50 13ft 7s 6s 38 47 mph 1010.7mb 53f 46f
Ter 04/15 11:50 12ft 9s 6s 38 45 mph 1008.5mb 52f 47f
10:50 9ft 8s 6s 34 43 mph 1007.5mb 52f 48f
9:50 8.5ft 9s 6s 16 25 mph 1005.9mb 54f 59f
8:50 8.5ft 8s 6s 18 20 mph 1005.1mb 53f 61f
7:50 9.5ft 8s 7s 20 22 mph 1004.4mb 53f 62f
6:50 9ft 9s 6s 20 25 mph 1005.3mb 53f 61f
5:50 10ft 9s 6s 20 25 mph 1005.7mb 53f 61f
4:50 10ft 9s 7s 22 25 mph 1005.9mb 53f 60f
3:50 11ft 9s 7s 20 25 mph 1006.1mb 52f 61f
2:50 10ft 9s 6s 25 29 mph 1006.8mb 52f 62f
1:50 10ft 9s 7s 22 27 mph 1007.6mb 53f 62f
12:50 11ft 9s 7s 25 31 mph 1007.9mb 56f 64f
11:50 10.5ft 8s 6s 27 31 mph 1008.5mb 60f 65f
10:50 9.5ft 8s 6s 25 29 mph 1009.1mb 61f 65f
9:50 9.5ft 8s 6s 27 31 mph 1009.2mb 62f 65f
8:50 9ft 8s 6s 27 34 mph 1009.6mb 61f 65f
7:50 8ft 8s 6s 29 36 mph 1009.5mb 61f 66f
6:50 8ft 8s 6s 29 34 mph 1009.8mb 55f 66f
5:50 8ft 8s 6s 25 29 mph 1010.5mb 54f 64f
4:50 8.5ft 8s 6s 25 29 mph 1011.2mb 53f 63f
3:50 8ft 8s 6s 22 27 mph 1012mb 52f 62f
2:50 8ft 8s 6s 20 22 mph 1012.4mb 51f 61f
1:50 8ft 8s 6s 20 22 mph 1013.3mb 51f 61f
12:50 7.5ft 8s 6s 22 25 mph 1013.5mb 52f 63f